Regional Weather Roundup
Issued by NWS Little Rock, AR

Home | Current Version | Previous Version | Graphics & Text | Print | Product List | Glossary On
Versions: 1 2 3 4 5 6 7 8 9 10 11 12 13 14 15 16 17 18 19 20 21 22 23 24 25 26 27 28 29 30 31 32 33 34 35 36 37 38 39 40 41 42 43 44 45 46 47 48 49 50
000
ASUS44 KLZK 271105
RWRLZK

WEATHER ROUNDUP FOR ARKANSAS
NATIONAL WEATHER SERVICE LITTLE ROCK AR
500 AM CST FRI FEB 27 2015

NOTE: "FAIR" INDICATES FEW OR NO CLOUDS BELOW 12,000 FEET WITH NO
SIGNIFICANT WEATHER AND/OR OBSTRUCTIONS TO VISIBILITY.

ARZ001-003-010-029-271200-
NORTHWEST ARKANSAS

CITY           SKY/WX    TMP DP  RH WIND       PRES   REMARKS
FAYETTEVILLE   CLEAR     13   4  67 NE6       30.48F WCI   4
FORT SMITH     CLEAR     20   7  57 NE8       30.52F WCI  10
HARRISON       CLEAR     10   3  73 N6        30.50R WCI   0
BENTONVILLE    CLEAR     12   3  67 NE8       30.50S WCI   1
ROGERS         CLEAR     11   4  73 NE12      30.50S WCI  -3
SILOAM SPGS    CLEAR     12   1  62 NE9       30.50S WCI   0
HIGHFILL       CLEAR     13   4  67 NE10      30.48F WCI   0
$$

ARZ004-005-016-271200-
NORTH CENTRAL ARKANSAS

CITY           SKY/WX    TMP DP  RH WIND       PRES   REMARKS
BATESVILLE     CLEAR     18   7  62 N6        30.55R WCI   9
FLIPPIN        CLEAR     12   1  62 N5        30.54R WCI   4
MTN HOME       CLEAR     11   2  67 N3        30.53R
$$

ARZ040-041-271200-
WEST CENTRAL ARKANSAS

CITY           SKY/WX    TMP DP  RH WIND       PRES   REMARKS
MENA           CLEAR     23  12  63 NE6       30.43S WCI  16
MOUNT IDA      CLEAR     22   9  57 VRB5      30.44S WCI  16
$$

ARZ009-017-025-026-028-271200-
NORTHEAST ARKANSAS

CITY           SKY/WX    TMP DP  RH WIND       PRES   REMARKS
CORNING        FAIR      16   5  62 N14       30.59R WCI   1
JONESBORO      CLEAR     18   7  62 N9        30.56R WCI   7
NEWPORT        CLEAR     20  11  68 N18       30.57R WCI   5
WALNUT RIDGE   CLEAR     16   1  53 N15       30.57R WCI   1
BLYTHEVILLE    CLEAR     18  13  80 N22       30.55R WCI   1
$$

ARZ022-023-033-042-044-271200-
CENTRAL ARKANSAS

CITY           SKY/WX    TMP DP  RH WIND       PRES   REMARKS
LITTLE ROCK    CLEAR     22  10  60 N9        30.54R WCI  12
N LITTLE ROCK    N/A     19  13  78 N7        30.54R WCI  10
JACKSONVILLE   PTCLDY    20   9  62 N7        30.53R WCI  11
SEARCY         CLEAR     19  10  68 N8        30.56  WCI   9
HOT SPRINGS    PTCLDY    22   9  57 NE12      30.49S WCI  10
RUSSELLVILLE   CLEAR     20   6  55 NE6       30.53R WCI  12
CLINTON        FAIR      18   5  57 N5        30.57R WCI  11
$$

ARZ036-271200-
EAST ARKANSAS

CITY           SKY/WX    TMP DP  RH WIND       PRES   REMARKS
WEST MEMPHIS   MOCLDY    22  13  68 NE15G21   30.52R WCI   9
$$

ARZ050-053-066-070-073-271200-
SOUTHWEST ARKANSAS

CITY           SKY/WX    TMP DP  RH WIND       PRES   REMARKS
ARKADELPHIA    FAIR      24  14  65 NE8       30.51S WCI  15
CAMDEN         CLEAR     23  12  63 MISG      30.49F
TEXARKANA      CLEAR     26  16  65 NE8       30.45S WCI  18
EL DORADO      CLEAR     24  15  68 N10       30.47S WCI  14
DE QUEEN       CLEAR     23  14  68 E5        30.45F WCI  17
$$

ARZ056-057-069-271200-
SOUTHEAST ARKANSAS

CITY           SKY/WX    TMP DP  RH WIND       PRES   REMARKS
PINE BLUFF     CLEAR     23  15  71 N14       30.51S WCI  11
STUTTGART      CLOUDY    23  16  74 N15       30.52R WCI  10
MONTICELLO     CLEAR     25  17  72 NE7       30.48R WCI  17

$$




USA.gov is the U.S. government's official web portal to all federal, state and local government web resources and services.